Location: San Antonio
(29.4240°N, 98.4930°W)
Time: 06:20:20
(UTC-05:00)

deb Explorer IX - Visible Passes

Search period start: 19 July 2024 00:00
Search period end: 29 July 2024 00:00
Orbit: 510 x 879 km, 38.7° (Epoch: 18 July)

Date Brightness Start Highest point End Pass type
(mag) Time Alt. Az. Time Alt. Az. Time Alt. Az.
19 Jul ? 22:23:33 10° W 22:29:04 43° NNW 22:34:08 10° NE visible
20 Jul ? 00:09:22 10° WNW 00:13:14 27° NNW 00:13:14 27° NNW visible
20 Jul ? 21:20:08 10° WSW 21:26:02 60° NNW 21:31:31 10° ENE visible
20 Jul ? 23:05:52 10° WNW 23:10:53 31° N 23:13:45 19° NE visible
21 Jul ? 00:51:10 10° NW 00:52:21 16° NW 00:52:21 16° NW visible
21 Jul ? 22:02:15 10° W 22:07:40 37° NNW 22:12:43 10° NE visible
21 Jul ? 23:47:54 10° WNW 23:52:40 30° N 23:52:40 30° N visible
22 Jul ? 20:58:37 10° W 21:04:26 48° NNW 21:09:55 10° NE visible
22 Jul ? 22:44:23 10° WNW 22:49:28 31° N 22:52:52 16° NE visible
23 Jul ? 00:29:22 10° NW 00:31:27 21° NW 00:31:27 21° NW visible
23 Jul ? 21:40:43 10° WNW 21:46:05 34° N 21:51:07 10° NE visible
23 Jul ? 23:26:06 10° NW 23:31:14 34° N 23:31:32 34° NNE visible
24 Jul ? 22:22:36 10° WNW 22:27:49 32° N 22:31:32 16° ENE visible
25 Jul ? 00:07:19 10° WNW 00:10:06 28° NW 00:10:06 28° NW visible
25 Jul ? 21:18:55 10° WNW 21:24:16 32° N 21:29:21 10° ENE visible
25 Jul ? 23:03:58 10° NW 23:09:26 41° NNE 23:10:02 39° NNE visible
26 Jul ? 00:48:25 10° WNW 00:48:36 11° WNW 00:48:36 11° WNW visible
26 Jul ? 22:00:28 10° WNW 22:05:53 35° N 22:09:56 15° ENE visible
26 Jul ? 23:45:00 10° WNW 23:48:29 37° NW 23:48:29 37° NW visible
27 Jul ? 20:56:48 10° WNW 21:02:13 33° N 21:07:24 10° ENE visible
27 Jul ? 22:41:33 10° WNW 22:47:18 51° NNE 22:48:19 45° NE visible
28 Jul ? 00:26:07 10° WNW 00:26:53 14° WNW 00:26:53 14° WNW visible
28 Jul ? 21:38:03 10° NW 21:43:41 40° NNE 21:48:07 14° ENE visible
28 Jul ? 23:22:28 10° WNW 23:26:40 48° WNW 23:26:40 48° WNW visible
